DW0088 Weather Reports


Display with metric or nautical units.
time (UTC)temp
F
wind
direction
speed
MPH
gust
MPH
rain 1hr
in
rain 24hr
in
rain mn
in
humidity
%
barometer
mb
20260906143002 75 99 6.0 10.0 0.00 0.00 0.00 55 1022.3
20260906142001 74 88 7.0 12.0 0.00 0.00 0.00 56 1022.4
20260906140002 74 99 4.0 10.0 0.00 0.00 0.00 58 1022.7
20260906134001 74 111 6.0 12.0 0.00 0.00 0.00 57 1023.1
20260906133002 74 94 6.0 11.0 0.00 0.00 0.00 56 1023.1
20260906132002 73 117 5.0 12.0 0.00 0.00 0.00 57 1023.3
20260906130002 72 110 6.0 10.0 0.00 0.00 0.00 59 1023.4
20260906125001 73 104 6.0 10.0 0.00 0.00 0.00 58 1023.5
20260906123003 72 106 6.0 10.0 0.00 0.00 0.00 59 1023.6
20260906122002 72 92 8.0 17.0 0.00 0.00 0.00 59 1023.6
20260906121002 72 103 8.0 14.0 0.00 0.00 0.00 60 1024.0
20260906120002 72 98 7.0 15.0 0.00 0.00 0.00 60 1024.0
20260906115002 71 120 7.0 11.0 0.00 0.00 0.00 61 1024.3
20260906114002 71 130 5.0 10.0 0.00 0.00 0.00 60 1024.4
20260906113002 71 104 8.0 13.0 0.00 0.00 0.00 60 1024.4
20260906112002 71 99 7.0 13.0 0.00 0.00 0.00 62 1024.5
20260906111002 70 124 6.0 10.0 0.00 0.00 0.00 60 1024.7
20260906110004 70 134 6.0 16.0 0.00 0.00 0.00 63 1024.7
20260906105002 70 139 5.0 14.0 0.00 0.00 0.00 62 1024.9
20260906104002 70 108 6.0 14.0 0.00 0.00 0.00 62 1024.9
20260906103003 70 106 7.0 15.0 0.00 0.00 0.00 60 1024.9
20260906101002 69 108 5.0 14.0 0.00 0.00 0.00 64 1025.5
20260906095002 69 100 7.0 13.0 0.00 0.00 0.00 65 1025.5
20260906094002 68 101 7.0 13.0 0.00 0.00 0.00 65 1025.6
20260906093002 67 103 7.0 14.0 0.00 0.00 0.00 66 1025.6
20260906092002 67 111 6.0 10.0 0.00 0.00 0.00 65 1025.9
20260906085002 66 98 8.0 13.0 0.00 0.00 0.00 68 1025.8
20260906084002 65 100 8.0 14.0 0.00 0.00 0.00 69 1025.9
20260906083002 65 101 8.0 14.0 0.00 0.00 0.00 73 1025.9
20260906082002 64 94 7.0 11.0 0.00 0.00 0.00 75 1026.1
20260906081003 64 110 4.0 7.0 0.00 0.00 0.00 78 1026.1
20260906080004 63 100 6.0 11.0 0.00 0.00 0.00 79 1026.1
20260906075003 62 99 5.0 8.0 0.00 0.00 0.00 83 1026.2
20260906073003 61 113 2.0 7.0 0.00 0.00 0.00 85 1026.0
20260906072003 60 103 2.0 5.0 0.00 0.00 0.00 90 1026.0
20260906071002 58 110 2.0 4.0 0.00 0.00 0.00 93 1026.0
20260906070002 57 124 2.0 5.0 0.00 0.00 0.00 97 1026.0
20260906064003 55 166 1.0 3.0 0.00 0.00 0.00 99 1026.1
20260906063002 54 166 1.0 3.0 0.00 0.00 0.00 100 1026.1
20260906062003 53 166 0.0 3.0 0.00 0.00 0.00 100 1026.0
20260906061003 51 166 0.0 2.0 0.00 0.00 0.00 99 1026.1
20260906060003 49 166 0.0 1.0 0.00 0.00 0.00 99 1026.1
20260906055003 49 166 0.0 2.0 0.00 0.00 0.00 99 1026.0
20260906053003 47 0 0.0 0.0 0.00 0.00 0.00 98 1025.9
20260906052002 47 0 0.0 0.0 0.00 0.00 0.00 98 1025.9
20260906051003 46 0 0.0 0.0 0.00 0.00 0.00 98 1025.9
20260906050003 46 0 0.0 0.0 0.00 0.00 0.00 98 1025.9
20260906045002 46 0 0.0 0.0 0.00 0.00 0.00 98 1026.0
20260906044002 46 0 0.0 0.0 0.00 0.00 0.00 98 1026.0
20260906043004 46 0 0.0 0.0 0.00 0.00 0.00 97 1026.0
20260906042002 47 0 0.0 0.0 0.00 0.00 0.00 97 1026.1
20260906041003 48 0 0.0 0.0 0.00 0.00 0.00 98 1026.5
20260906040003 48 0 0.0 0.0 0.00 0.00 0.00 98 1026.5
20260906035003 48 0 0.0 0.0 0.00 0.00 0.00 98 1026.5
20260906034002 48 0 0.0 0.0 0.00 0.00 0.00 98 1026.4
20260906032004 48 0 0.0 0.0 0.00 0.00 0.00 98 1026.1
20260906031003 48 167 1.0 2.0 0.00 0.00 0.00 98 1026.3
20260906030003 47 166 0.0 2.0 0.00 0.00 0.00 97 1026.3
20260906025003 48 167 1.0 2.0 0.00 0.00 0.00 97 1026.4
20260906024003 48 166 1.0 2.0 0.00 0.00 0.00 97 1026.7
20260906022003 49 166 0.0 1.0 0.00 0.00 0.00 97 1026.9
20260906021003 49 166 0.0 2.0 0.00 0.00 0.00 97 1026.9
20260906020003 49 163 2.0 4.0 0.00 0.00 0.00 97 1026.9
20260906015004 49 160 2.0 3.0 0.00 0.00 0.00 97 1026.7
20260906014003 49 160 1.0 2.0 0.00 0.00 0.00 97 1026.5
20260906013004 49 0 0.0 0.0 0.00 0.00 0.00 97 1026.5
20260906012004 49 161 0.0 1.0 0.00 0.00 0.00 97 1026.5
20260906011003 49 160 1.0 3.0 0.00 0.00 0.00 97 1026.5
20260906010003 49 160 0.0 3.0 0.00 0.00 0.00 97 1026.5
20260906005003 50 175 2.0 4.0 0.00 0.00 0.00 97 1026.5
20260906004004 50 196 1.0 3.0 0.00 0.00 0.00 96 1026.6
20260906003003 50 196 0.0 3.0 0.00 0.00 0.00 97 1026.6
20260906002004 50 0 0.0 0.0 0.00 0.00 0.00 96 1026.5
20260906001003 50 0 0.0 0.0 0.00 0.00 0.00 96 1026.5
20260906000005 50 0 0.0 0.0 0.00 0.00 0.00 96 1026.5
20260905234004 50 0 0.0 0.0 0.00 0.00 0.00 96 1026.4
20260905233004 51 195 0.0 1.0 0.00 0.00 0.00 96 1026.4
20260905231003 51 196 1.0 2.0 0.00 0.00 0.00 96 1026.1
20260905230004 51 196 1.0 3.0 0.00 0.00 0.00 95 1026.1
20260905225004 51 196 1.0 2.0 0.00 0.00 0.00 95 1026.2
20260905223004 52 196 1.0 3.0 0.00 0.00 0.00 95 1026.0
20260905222004 52 195 0.0 1.0 0.00 0.00 0.00 95 1026.2
20260905220009 53 196 1.0 2.0 0.00 0.00 0.00 94 1026.0
20260905215005 53 195 1.0 2.0 0.00 0.00 0.00 94 1025.9
20260905214004 53 196 0.0 2.0 0.00 0.00 0.00 93 1025.9
20260905213004 54 196 1.0 2.0 0.00 0.00 0.00 94 1025.9
20260905211004 53 0 0.0 0.0 0.00 0.00 0.00 93 1025.8
20260905210006 53 0 0.0 0.0 0.00 0.00 0.00 92 1025.8
20260905205004 54 195 1.0 3.0 0.00 0.00 0.00 92 1025.6
20260905204004 54 194 1.0 3.0 0.00 0.00 0.00 92 1025.5
20260905203004 54 0 0.0 0.0 0.00 0.00 0.00 91 1025.5
20260905202004 55 0 0.0 0.0 0.00 0.00 0.00 89 1025.5
20260905201004 56 241 0.0 2.0 0.00 0.00 0.00 89 1025.5
20260905200005 56 0 0.0 0.0 0.00 0.00 0.00 88 1025.5
20260905195005 57 0 0.0 0.0 0.00 0.00 0.00 88 1025.4
20260905194004 57 239 1.0 1.0 0.00 0.00 0.00 87 1025.4
20260905193004 58 239 0.0 2.0 0.00 0.00 0.00 85 1025.4
20260905192005 58 233 2.0 4.0 0.00 0.00 0.00 84 1025.3
20260905191004 60 219 1.0 2.0 0.00 0.00 0.00 81 1025.0
20260905190005 61 228 2.0 3.0 0.00 0.00 0.00 80 1025.0
20260905185005 61 244 2.0 4.0 0.00 0.00 0.00 78 1025.0
20260905184004 62 244 2.0 4.0 0.00 0.00 0.00 78 1024.9
20260905181959 63 244 2.0 3.0 0.00 0.00 0.00 76 1024.9
20260905181000 63 256 3.0 6.0 0.00 0.00 0.00 75 1024.9
20260905175959 64 258 4.0 8.0 0.00 0.00 0.00 74 1024.9
20260905174959 64 254 4.0 9.0 0.00 0.00 0.00 74 1024.8
20260905173959 65 261 5.0 12.0 0.00 0.00 0.00 73 1024.8
20260905172959 65 267 6.0 11.0 0.00 0.00 0.00 72 1024.8
20260905170959 66 258 7.0 12.0 0.00 0.00 0.00 70 1024.4
20260905165959 67 251 6.0 11.0 0.00 0.00 0.00 69 1024.4
20260905164958 67 255 7.0 15.0 0.00 0.00 0.00 69 1024.4
20260905163958 67 247 6.0 11.0 0.00 0.00 0.00 69 1024.3
20260905161959 67 248 6.0 11.0 0.00 0.00 0.00 69 1024.0
20260905161000 68 253 7.0 13.0 0.00 0.00 0.00 68 1023.9
20260905155959 67 253 7.0 13.0 0.00 0.00 0.00 68 1023.9
20260905154959 67 254 8.0 13.0 0.00 0.00 0.00 68 1023.8
20260905153959 67 258 9.0 18.0 0.00 0.00 0.00 69 1023.6
20260905153001 67 252 8.0 15.0 0.00 0.00 0.00 69 1023.6
20260905151959 69 217 8.0 15.0 0.00 0.00 0.00 66 1023.4
20260905145959 68 229 7.0 12.0 0.00 0.00 0.00 69 1023.4
20260905144959 69 240 6.0 13.0 0.00 0.00 0.00 67 1023.2
20260905144000 68 233 6.0 12.0 0.00 0.00 0.00 68 1023.1